Lemhi County Airport
KSMN : now visible

Airfield :











YOU CAN JOIN US ON...

 
LOGIN :

Register | Disclaimer

   EN    FR    IT 

 









Legend :    VFR   Marginal VFR   IFR   Intensive IFR   Very Intensive IFR
Visi :
Ceiling :
>= 8 km
>= 3000ft
5 to 8 km
1000 to 3000 ft
1500m to 5 km
500 to 1000 ft
800 to 1500m
200 to 500 ft
< 800m
< 200 ft
Symbols :   Thunderstorms  Fog  Heavy snow  Heavy precipitations  Wind > 20 kt






- Airport Elevation : 4043 ft


KSMN - Lemhi County

CURRENT METAR :
  • 241356Z AUTO 00000KT 10SM CLR 02/M01 A3034 RMK AO2 SLP278 T00221006 FZRANO

EXPIRED METARs :
  • 241256Z AUTO 00000KT 10SM CLR 02/M01 A3034 RMK AO2 SLP275 T00171006 FZRANO
  • 241156Z AUTO 34003KT 10SM CLR 03/00 A3033 RMK AO2 SLP263 T00280000 10094 20028 53009

TAF KSMN
Valid from the 24 at 12:00 until the 25 at 12:00 UTC


241120Z 2412/2512 33003KT P6SM SKC
KZLC FIR / North America



MET'MAP, your aeronautical weather chart ! - Copyright ORBIFLY December 2007 - Disclaimer

ORBIFLY MET'MAP TEAM :

Programming & Development : Alexandra Zaïnal
Concept & original design : Baudouin d'Aumeries
Assistance for programming : Marc-Olivier Méhu
Technical & hardware support : Manuel Goepfert

Contact : metmap@orbifly.com




SOURCES & CREDITS :

   NOAA       Earth
Advisory